Year,Month,Day,Hour,Minute,Value (Times are PST for windgust in km/hr)
2017,06,15,00,00,8.10
2017,06,15,00,01,8.10
2017,06,15,00,02,8.10
2017,06,15,00,03,3.20
2017,06,15,00,04,6.40
2017,06,15,00,05,4.80
2017,06,15,00,06,6.40
2017,06,15,00,07,3.20
2017,06,15,00,08,4.80
2017,06,15,00,09,3.20
2017,06,15,00,10,6.40
2017,06,15,00,11,9.60
2017,06,15,00,12,9.60
2017,06,15,00,13,4.80
2017,06,15,00,14,8.10
2017,06,15,00,15,3.20
2017,06,15,00,16,3.20
2017,06,15,00,17,4.80
2017,06,15,00,18,4.80
2017,06,15,00,19,4.80
2017,06,15,00,20,4.80
2017,06,15,00,21,1.60
2017,06,15,00,22,3.20
2017,06,15,00,23,4.80
2017,06,15,00,24,12.90
2017,06,15,00,25,8.10
2017,06,15,00,26,3.20
2017,06,15,00,27,4.80
2017,06,15,00,28,4.80
2017,06,15,00,29,4.80
2017,06,15,00,30,1.60
2017,06,15,00,31,1.60
2017,06,15,00,32,6.40
2017,06,15,00,33,6.40
2017,06,15,00,34,1.60
2017,06,15,00,35,6.40
2017,06,15,00,36,3.20
2017,06,15,00,37,3.20
2017,06,15,00,38,4.80
2017,06,15,00,39,4.80
2017,06,15,00,41,1.60
2017,06,15,00,42,12.90
2017,06,15,00,43,4.80
2017,06,15,00,44,12.90
2017,06,15,00,45,3.20
2017,06,15,00,46,1.60
2017,06,15,00,47,8.10
2017,06,15,00,48,14.50
2017,06,15,00,49,11.30
2017,06,15,00,50,4.80
2017,06,15,00,51,3.20
2017,06,15,00,52,3.20
2017,06,15,00,53,3.20
2017,06,15,00,54,1.60
2017,06,15,00,57,3.20
2017,06,15,00,58,1.60
2017,06,15,00,59,3.20
2017,06,15,01,00,9.60
2017,06,15,01,01,1.60
2017,06,15,01,03,12.90
2017,06,15,01,04,6.40
2017,06,15,01,05,8.10
2017,06,15,01,06,4.80
2017,06,15,01,07,3.20
2017,06,15,01,08,9.60
2017,06,15,01,09,6.40
2017,06,15,01,10,6.40
2017,06,15,01,11,1.60
2017,06,15,01,12,3.20
2017,06,15,01,15,3.20
2017,06,15,01,16,1.60
2017,06,15,01,17,1.60
2017,06,15,01,22,1.60
2017,06,15,01,23,1.60
2017,06,15,01,24,1.60
2017,06,15,01,25,1.60
2017,06,15,01,27,1.60
2017,06,15,01,28,3.20
2017,06,15,01,29,4.80
2017,06,15,01,30,1.60
2017,06,15,01,31,1.60
2017,06,15,01,32,1.60
2017,06,15,01,33,1.60
2017,06,15,01,34,4.80
2017,06,15,01,35,3.20
2017,06,15,01,36,4.80
2017,06,15,01,37,1.60
2017,06,15,01,38,6.40
2017,06,15,01,39,1.60
2017,06,15,01,40,6.40
2017,06,15,01,41,3.20
2017,06,15,01,42,1.60
2017,06,15,01,43,3.20
2017,06,15,01,44,1.60
2017,06,15,01,45,1.60
2017,06,15,01,46,3.20
2017,06,15,01,47,3.20
2017,06,15,01,48,3.20
2017,06,15,01,49,4.80
2017,06,15,01,50,3.20
2017,06,15,01,55,3.20
2017,06,15,01,56,3.20
2017,06,15,01,57,3.20
2017,06,15,01,58,4.80
2017,06,15,01,59,3.20
2017,06,15,02,01,1.60
2017,06,15,02,02,3.20
2017,06,15,02,03,1.60
2017,06,15,02,04,3.20
2017,06,15,02,05,1.60
2017,06,15,02,06,3.20
2017,06,15,02,07,3.20
2017,06,15,02,08,1.60
2017,06,15,02,09,1.60
2017,06,15,02,11,1.60
2017,06,15,02,12,3.20
2017,06,15,02,14,1.60
2017,06,15,02,15,1.60
2017,06,15,02,16,3.20
2017,06,15,02,17,3.20
2017,06,15,02,18,3.20
2017,06,15,02,19,3.20
2017,06,15,02,21,3.20
2017,06,15,02,22,3.20
2017,06,15,02,23,1.60
2017,06,15,02,24,1.60
2017,06,15,02,26,1.60
2017,06,15,02,27,1.60
2017,06,15,02,28,1.60
2017,06,15,02,29,1.60
2017,06,15,02,31,4.80
2017,06,15,02,32,3.20
2017,06,15,02,33,3.20
2017,06,15,02,34,4.80
2017,06,15,02,35,1.60
2017,06,15,02,36,3.20
2017,06,15,02,37,4.80
2017,06,15,02,38,3.20
2017,06,15,02,39,3.20
2017,06,15,02,40,1.60
2017,06,15,02,41,3.20
2017,06,15,02,42,3.20
2017,06,15,02,43,11.30
2017,06,15,02,44,1.60
2017,06,15,02,45,4.80
2017,06,15,02,46,3.20
2017,06,15,02,47,6.40
2017,06,15,02,48,3.20
2017,06,15,02,51,1.60
2017,06,15,02,52,6.40
2017,06,15,02,53,3.20
2017,06,15,02,54,1.60
2017,06,15,02,55,4.80
2017,06,15,02,56,6.40
2017,06,15,02,57,3.20
2017,06,15,02,58,8.10
2017,06,15,02,59,8.10
2017,06,15,03,00,3.20
2017,06,15,03,01,4.80
2017,06,15,03,02,6.40
2017,06,15,03,03,6.40
2017,06,15,03,04,3.20
2017,06,15,03,05,3.20
2017,06,15,03,06,3.20
2017,06,15,03,07,9.60
2017,06,15,03,08,4.80
2017,06,15,03,09,6.40
2017,06,15,03,10,1.60
2017,06,15,03,11,3.20
2017,06,15,03,12,3.20
2017,06,15,03,13,1.60
2017,06,15,03,14,3.20
2017,06,15,03,15,1.60
2017,06,15,03,16,4.80
2017,06,15,03,17,6.40
2017,06,15,03,18,6.40
2017,06,15,03,19,3.20
2017,06,15,03,20,6.40
2017,06,15,03,21,12.90
2017,06,15,03,22,3.20
2017,06,15,03,23,6.40
2017,06,15,03,24,6.40
2017,06,15,03,25,3.20
2017,06,15,03,26,4.80
2017,06,15,03,27,11.30
2017,06,15,03,28,3.20
2017,06,15,03,29,3.20
2017,06,15,03,30,3.20
2017,06,15,03,31,1.60
2017,06,15,03,32,6.40
2017,06,15,03,33,11.30
2017,06,15,03,34,4.80
2017,06,15,03,35,4.80
2017,06,15,03,36,6.40
2017,06,15,03,37,9.60
2017,06,15,03,38,6.40
2017,06,15,03,39,9.60
2017,06,15,03,40,6.40
2017,06,15,03,41,1.60
2017,06,15,03,42,6.40
2017,06,15,03,43,6.40
2017,06,15,03,44,3.20
2017,06,15,03,45,4.80
2017,06,15,03,46,6.40
2017,06,15,03,47,6.40
2017,06,15,03,48,3.20
2017,06,15,03,49,6.40
2017,06,15,03,50,3.20
2017,06,15,03,51,4.80
2017,06,15,03,52,3.20
2017,06,15,03,53,3.20
2017,06,15,03,54,11.30
2017,06,15,03,55,4.80
2017,06,15,03,56,6.40
2017,06,15,03,57,9.60
2017,06,15,03,58,9.60
2017,06,15,03,59,1.60
2017,06,15,04,00,1.60
2017,06,15,04,01,1.60
2017,06,15,04,02,4.80
2017,06,15,04,03,6.40
2017,06,15,04,04,4.80
2017,06,15,04,05,3.20
2017,06,15,04,06,11.30
2017,06,15,04,07,8.10
2017,06,15,04,08,4.80
2017,06,15,04,09,9.60
2017,06,15,04,10,12.90
2017,06,15,04,11,4.80
2017,06,15,04,12,1.60
2017,06,15,04,13,4.80
2017,06,15,04,14,1.60
2017,06,15,04,15,6.40
2017,06,15,04,16,12.90
2017,06,15,04,17,8.10
2017,06,15,04,18,3.20
2017,06,15,04,19,4.80
2017,06,15,04,20,3.20
2017,06,15,04,21,3.20
2017,06,15,04,22,1.60
2017,06,15,04,24,6.40
2017,06,15,04,25,9.60
2017,06,15,04,26,4.80
2017,06,15,04,27,3.20
2017,06,15,04,29,3.20
2017,06,15,04,30,3.20
2017,06,15,04,31,4.80
2017,06,15,04,32,3.20
2017,06,15,04,33,3.20
2017,06,15,04,35,3.20
2017,06,15,04,36,3.20
2017,06,15,04,37,1.60
2017,06,15,04,38,1.60
2017,06,15,04,39,1.60
2017,06,15,04,40,1.60
2017,06,15,04,41,1.60
2017,06,15,04,42,3.20
2017,06,15,04,43,3.20
2017,06,15,04,44,3.20
2017,06,15,04,45,1.60
2017,06,15,04,46,3.20
2017,06,15,04,47,6.40
2017,06,15,04,48,3.20
2017,06,15,04,49,6.40
2017,06,15,04,50,3.20
2017,06,15,04,51,4.80
2017,06,15,04,52,3.20
2017,06,15,04,53,3.20
2017,06,15,04,54,1.60
2017,06,15,04,55,4.80
2017,06,15,04,56,3.20
2017,06,15,04,57,4.80
2017,06,15,04,58,1.60
2017,06,15,04,59,1.60
2017,06,15,05,00,1.60
2017,06,15,05,01,4.80
2017,06,15,05,02,4.80
2017,06,15,05,03,1.60
2017,06,15,05,05,3.20
2017,06,15,05,06,3.20
2017,06,15,05,07,1.60
2017,06,15,05,09,1.60
2017,06,15,05,10,1.60
2017,06,15,05,11,6.40
2017,06,15,05,12,1.60
2017,06,15,05,16,3.20
2017,06,15,05,17,4.80
2017,06,15,05,18,1.60
2017,06,15,05,21,11.30
2017,06,15,05,22,6.40
2017,06,15,05,23,4.80
2017,06,15,05,24,1.60
2017,06,15,05,25,1.60
2017,06,15,05,26,3.20
2017,06,15,05,27,1.60
2017,06,15,05,28,4.80
2017,06,15,05,29,4.80
2017,06,15,05,30,3.20
2017,06,15,05,31,3.20
2017,06,15,05,32,1.60
2017,06,15,05,33,3.20
2017,06,15,05,34,3.20
2017,06,15,05,35,6.40
2017,06,15,05,36,1.60
2017,06,15,05,37,3.20
2017,06,15,05,38,9.60
2017,06,15,05,39,1.60
2017,06,15,05,40,4.80
2017,06,15,05,41,1.60
2017,06,15,05,42,1.60
2017,06,15,05,44,1.60
2017,06,15,05,45,4.80
2017,06,15,05,49,4.80
2017,06,15,05,50,3.20
2017,06,15,05,51,1.60
2017,06,15,05,52,6.40
2017,06,15,05,53,1.60
2017,06,15,05,55,1.60
2017,06,15,05,56,3.20
2017,06,15,05,57,3.20
2017,06,15,05,58,3.20
2017,06,15,05,59,3.20
2017,06,15,06,00,1.60
2017,06,15,06,06,1.60
2017,06,15,06,07,3.20
2017,06,15,06,08,3.20
2017,06,15,06,09,1.60
2017,06,15,06,11,4.80
2017,06,15,06,12,3.20
2017,06,15,06,13,1.60
2017,06,15,06,14,3.20
2017,06,15,06,17,1.60
2017,06,15,06,18,3.20
2017,06,15,06,19,1.60
2017,06,15,06,20,1.60
2017,06,15,06,21,4.80
2017,06,15,06,22,1.60
2017,06,15,06,23,3.20
2017,06,15,06,24,1.60
2017,06,15,06,25,1.60
2017,06,15,06,26,1.60
2017,06,15,06,27,1.60
2017,06,15,06,28,12.90
2017,06,15,06,29,4.80
2017,06,15,06,30,3.20
2017,06,15,06,31,4.80
2017,06,15,06,32,9.60
2017,06,15,06,33,3.20
2017,06,15,06,34,11.30
2017,06,15,06,35,24.20
2017,06,15,06,36,12.90
2017,06,15,06,37,4.80
2017,06,15,06,38,3.20
2017,06,15,06,39,1.60
2017,06,15,06,40,1.60
2017,06,15,06,41,4.80
2017,06,15,06,42,1.60
2017,06,15,06,43,12.90
2017,06,15,06,44,12.90
2017,06,15,06,45,4.80
2017,06,15,06,46,4.80
2017,06,15,06,47,1.60
2017,06,15,06,48,11.30
2017,06,15,06,49,3.20
2017,06,15,06,50,11.30
2017,06,15,06,51,11.30
2017,06,15,06,52,6.40
2017,06,15,06,53,20.90
2017,06,15,06,54,3.20
2017,06,15,06,55,12.90
2017,06,15,06,56,11.30
2017,06,15,06,57,11.30
2017,06,15,06,58,16.10
2017,06,15,06,59,14.50
2017,06,15,07,00,17.70
2017,06,15,07,01,17.70
2017,06,15,07,02,9.60
2017,06,15,07,03,11.30
2017,06,15,07,04,9.60
2017,06,15,07,05,8.10
2017,06,15,07,06,14.50
2017,06,15,07,07,11.30
2017,06,15,07,08,11.30
2017,06,15,07,09,16.10
2017,06,15,07,10,6.40
2017,06,15,07,11,3.20
2017,06,15,07,12,4.80
2017,06,15,07,13,19.30
2017,06,15,07,14,17.70
2017,06,15,07,15,19.30
2017,06,15,07,16,16.10
2017,06,15,07,17,16.10
2017,06,15,07,18,12.90
2017,06,15,07,19,11.30
2017,06,15,07,20,11.30
2017,06,15,07,21,14.50
2017,06,15,07,22,6.40
2017,06,15,07,23,8.10
2017,06,15,07,24,12.90
2017,06,15,07,25,8.10
2017,06,15,07,26,14.50
2017,06,15,07,27,6.40
2017,06,15,07,28,6.40
2017,06,15,07,29,9.60
2017,06,15,07,30,14.50
2017,06,15,07,31,25.70
2017,06,15,07,32,16.10
2017,06,15,07,33,11.30
2017,06,15,07,34,11.30
2017,06,15,07,35,17.70
2017,06,15,07,36,17.70
2017,06,15,07,37,14.50
2017,06,15,07,38,14.50
2017,06,15,07,39,16.10
2017,06,15,07,40,20.90
2017,06,15,07,41,12.90
2017,06,15,07,42,11.30
2017,06,15,07,43,12.90
2017,06,15,07,44,16.10
2017,06,15,07,45,32.20
2017,06,15,07,46,33.80
2017,06,15,07,47,14.50
2017,06,15,07,48,25.70
2017,06,15,07,49,12.90
2017,06,15,07,50,8.10
2017,06,15,07,51,17.70
2017,06,15,07,52,22.50
2017,06,15,07,53,22.50
2017,06,15,07,54,22.50
2017,06,15,07,55,16.10
2017,06,15,07,56,20.90
2017,06,15,07,57,30.60
2017,06,15,07,58,22.50
2017,06,15,07,59,11.30
2017,06,15,08,00,22.50
2017,06,15,08,01,14.50
2017,06,15,08,02,17.70
2017,06,15,08,03,17.70
2017,06,15,08,04,29.00
2017,06,15,08,05,11.30
2017,06,15,08,06,14.50
2017,06,15,08,07,27.40
2017,06,15,08,08,27.40
2017,06,15,08,09,27.40
2017,06,15,08,10,19.30
2017,06,15,08,11,12.90
2017,06,15,08,12,30.60
2017,06,15,08,13,16.10
2017,06,15,08,14,11.30
2017,06,15,08,15,14.50
2017,06,15,08,16,29.00
2017,06,15,08,17,41.80
2017,06,15,08,18,29.00
2017,06,15,08,19,24.20
2017,06,15,08,20,24.20
2017,06,15,08,21,29.00
2017,06,15,08,22,14.50
2017,06,15,08,23,19.30
2017,06,15,08,24,33.80
2017,06,15,08,25,19.30
2017,06,15,08,26,33.80
2017,06,15,08,27,29.00
2017,06,15,08,28,9.60
2017,06,15,08,29,12.90
2017,06,15,08,30,30.60
2017,06,15,08,31,12.90
2017,06,15,08,32,27.40
2017,06,15,08,33,17.70
2017,06,15,08,34,25.70
2017,06,15,08,35,25.70
2017,06,15,08,36,20.90
2017,06,15,08,37,19.30
2017,06,15,08,38,17.70
2017,06,15,08,39,12.90
2017,06,15,08,40,20.90
2017,06,15,08,41,8.10
2017,06,15,08,42,27.40
2017,06,15,08,43,24.20
2017,06,15,08,44,22.50
2017,06,15,08,45,24.20
2017,06,15,08,46,19.30
2017,06,15,08,47,20.90
2017,06,15,08,48,12.90
2017,06,15,08,49,22.50
2017,06,15,08,50,16.10
2017,06,15,08,51,24.20
2017,06,15,08,52,27.40
2017,06,15,08,53,11.30
2017,06,15,08,54,35.40
2017,06,15,08,55,17.70
2017,06,15,08,56,20.90
2017,06,15,08,57,12.90
2017,06,15,08,58,12.90
2017,06,15,08,59,14.50
2017,06,15,09,00,14.50
2017,06,15,09,01,16.10
2017,06,15,09,02,33.80
2017,06,15,09,03,16.10
2017,06,15,09,04,16.10
2017,06,15,09,05,14.50
2017,06,15,09,06,32.20
2017,06,15,09,07,20.90
2017,06,15,09,08,14.50
2017,06,15,09,09,16.10
2017,06,15,09,10,27.40
2017,06,15,09,11,8.10
2017,06,15,09,12,11.30
2017,06,15,09,13,14.50
2017,06,15,09,14,9.60
2017,06,15,09,15,29.00
2017,06,15,09,16,12.90
2017,06,15,09,17,35.40
2017,06,15,09,18,20.90
2017,06,15,09,19,19.30
2017,06,15,09,20,20.90
2017,06,15,09,21,17.70
2017,06,15,09,22,19.30
2017,06,15,09,23,17.70
2017,06,15,09,24,19.30
2017,06,15,09,25,27.40
2017,06,15,09,26,19.30
2017,06,15,09,27,17.70
2017,06,15,09,28,32.20
2017,06,15,09,29,38.60
2017,06,15,09,30,38.60
2017,06,15,09,31,22.50
2017,06,15,09,32,20.90
2017,06,15,09,33,16.10
2017,06,15,09,34,19.30
2017,06,15,09,35,19.30
2017,06,15,09,36,29.00
2017,06,15,09,37,22.50
2017,06,15,09,38,25.70
2017,06,15,09,39,19.30
2017,06,15,09,40,25.70
2017,06,15,09,41,12.90
2017,06,15,09,42,19.30
2017,06,15,09,43,25.70
2017,06,15,09,44,37.00
2017,06,15,09,45,22.50
2017,06,15,09,46,20.90
2017,06,15,09,47,16.10
2017,06,15,09,48,32.20
2017,06,15,09,49,33.80
2017,06,15,09,50,22.50
2017,06,15,09,51,27.40
2017,06,15,09,52,25.70
2017,06,15,09,53,14.50
2017,06,15,09,54,27.40
2017,06,15,09,55,16.10
2017,06,15,09,56,22.50
2017,06,15,09,57,19.30
2017,06,15,09,58,9.60
2017,06,15,09,59,11.30
2017,06,15,10,00,33.80
2017,06,15,10,01,30.60
2017,06,15,10,02,11.30
2017,06,15,10,03,20.90
2017,06,15,10,04,25.70
2017,06,15,10,05,11.30
2017,06,15,10,06,22.50
2017,06,15,10,07,12.90
2017,06,15,10,08,20.90
2017,06,15,10,09,25.70
2017,06,15,10,10,9.60
2017,06,15,10,11,22.50
2017,06,15,10,12,24.20
2017,06,15,10,13,19.30
2017,06,15,10,14,12.90
2017,06,15,10,15,33.80
2017,06,15,10,16,20.90
2017,06,15,10,17,22.50
2017,06,15,10,18,8.10
2017,06,15,10,19,19.30
2017,06,15,10,20,17.70
2017,06,15,10,21,17.70
2017,06,15,10,22,27.40
2017,06,15,10,23,38.60
2017,06,15,10,24,30.60
2017,06,15,10,25,17.70
2017,06,15,10,26,17.70
2017,06,15,10,27,22.50
2017,06,15,10,28,12.90
2017,06,15,10,29,17.70
2017,06,15,10,30,37.00
2017,06,15,10,31,14.50
2017,06,15,10,32,25.70
2017,06,15,10,33,32.20
2017,06,15,10,34,29.00
2017,06,15,10,35,24.20
2017,06,15,10,36,32.20
2017,06,15,10,37,35.40
2017,06,15,10,38,25.70
2017,06,15,10,39,12.90
2017,06,15,10,40,17.70
2017,06,15,10,41,16.10
2017,06,15,10,42,17.70
2017,06,15,10,43,22.50
2017,06,15,10,44,32.20
2017,06,15,10,45,11.30
2017,06,15,10,46,38.60
2017,06,15,10,47,24.20
2017,06,15,10,48,16.10
2017,06,15,10,49,32.20
2017,06,15,10,50,46.70
2017,06,15,10,51,27.40
2017,06,15,10,52,19.30
2017,06,15,10,53,14.50
2017,06,15,10,54,12.90
2017,06,15,10,55,16.10
2017,06,15,10,56,25.70
2017,06,15,10,57,30.60
2017,06,15,10,58,16.10
2017,06,15,10,59,35.40
2017,06,15,11,00,30.60
2017,06,15,11,01,19.30
2017,06,15,11,02,24.20
2017,06,15,11,03,9.60
2017,06,15,11,04,25.70
2017,06,15,11,05,9.60
2017,06,15,11,06,25.70
2017,06,15,11,07,17.70
2017,06,15,11,08,9.60
2017,06,15,11,09,6.40
2017,06,15,11,10,25.70
2017,06,15,11,11,24.20
2017,06,15,11,12,12.90
2017,06,15,11,13,11.30
2017,06,15,11,14,11.30
2017,06,15,11,15,24.20
2017,06,15,11,16,16.10
2017,06,15,11,17,17.70
2017,06,15,11,18,24.20
2017,06,15,11,19,37.00
2017,06,15,11,20,20.90
2017,06,15,11,21,20.90
2017,06,15,11,22,22.50
2017,06,15,11,23,24.20
2017,06,15,11,24,25.70
2017,06,15,11,25,16.10
2017,06,15,11,26,9.60
2017,06,15,11,27,12.90
2017,06,15,11,28,29.00
2017,06,15,11,29,17.70
2017,06,15,11,30,29.00
2017,06,15,11,31,19.30
2017,06,15,11,32,29.00
2017,06,15,11,33,29.00
2017,06,15,11,34,27.40
2017,06,15,11,35,37.00
2017,06,15,11,36,22.50
2017,06,15,11,37,20.90
2017,06,15,11,38,16.10
2017,06,15,11,39,16.10
2017,06,15,11,40,9.60
2017,06,15,11,41,9.60
2017,06,15,11,42,20.90
2017,06,15,11,43,14.50
2017,06,15,11,44,22.50
2017,06,15,11,45,29.00
2017,06,15,11,46,24.20
2017,06,15,11,47,19.30
2017,06,15,11,48,9.60
2017,06,15,11,49,29.00
2017,06,15,11,50,32.20
2017,06,15,11,51,12.90
2017,06,15,11,52,29.00
2017,06,15,11,53,22.50
2017,06,15,11,54,22.50
2017,06,15,11,55,25.70
2017,06,15,11,56,17.70
2017,06,15,11,57,24.20
2017,06,15,11,58,24.20
2017,06,15,11,59,22.50
2017,06,15,12,00,19.30
2017,06,15,12,01,25.70
2017,06,15,12,02,27.40
2017,06,15,12,03,20.90
2017,06,15,12,04,24.20
2017,06,15,12,05,27.40
2017,06,15,12,06,29.00
2017,06,15,12,07,17.70
2017,06,15,12,08,16.10
2017,06,15,12,09,20.90
2017,06,15,12,10,22.50
2017,06,15,12,11,32.20
2017,06,15,12,12,20.90
2017,06,15,12,13,27.40
2017,06,15,12,14,19.30
2017,06,15,12,15,20.90
2017,06,15,12,16,17.70
2017,06,15,12,17,12.90
2017,06,15,12,18,6.40
2017,06,15,12,19,32.20
2017,06,15,12,20,32.20
2017,06,15,12,21,12.90
2017,06,15,12,22,12.90
2017,06,15,12,23,33.80
2017,06,15,12,24,17.70
2017,06,15,12,25,12.90
2017,06,15,12,26,14.50
2017,06,15,12,27,19.30
2017,06,15,12,28,27.40
2017,06,15,12,29,25.70
2017,06,15,12,30,9.60
2017,06,15,12,31,19.30
2017,06,15,12,32,37.00
2017,06,15,12,33,29.00
2017,06,15,12,34,20.90
2017,06,15,12,35,24.20
2017,06,15,12,36,19.30
2017,06,15,12,37,20.90
2017,06,15,12,38,9.60
2017,06,15,12,39,32.20
2017,06,15,12,40,29.00
2017,06,15,12,41,25.70
2017,06,15,12,42,17.70
2017,06,15,12,43,11.30
2017,06,15,12,44,6.40
2017,06,15,12,45,20.90
2017,06,15,12,46,20.90
2017,06,15,12,47,33.80
2017,06,15,12,48,19.30
2017,06,15,12,49,22.50
2017,06,15,12,50,30.60
2017,06,15,12,51,25.70
2017,06,15,12,52,16.10
2017,06,15,12,53,30.60
2017,06,15,12,54,16.10
2017,06,15,12,55,29.00
2017,06,15,12,56,37.00
2017,06,15,12,57,24.20
2017,06,15,12,58,25.70
2017,06,15,12,59,20.90
2017,06,15,13,00,17.70
2017,06,15,13,01,30.60
2017,06,15,13,02,17.70
2017,06,15,13,03,37.00
2017,06,15,13,04,19.30
2017,06,15,13,05,19.30
2017,06,15,13,06,32.20
2017,06,15,13,07,19.30
2017,06,15,13,08,27.40
2017,06,15,13,09,11.30
2017,06,15,13,10,11.30
2017,06,15,13,11,29.00
2017,06,15,13,12,27.40
2017,06,15,13,13,20.90
2017,06,15,13,14,14.50
2017,06,15,13,15,24.20
2017,06,15,13,16,16.10
2017,06,15,13,17,32.20
2017,06,15,13,18,25.70
2017,06,15,13,19,41.80
2017,06,15,13,20,20.90
2017,06,15,13,21,12.90
2017,06,15,13,22,16.10
2017,06,15,13,23,20.90
2017,06,15,13,24,29.00
2017,06,15,13,25,30.60
2017,06,15,13,26,35.40
2017,06,15,13,27,29.00
2017,06,15,13,28,38.60
2017,06,15,13,29,25.70
2017,06,15,13,30,24.20
2017,06,15,13,31,25.70
2017,06,15,13,32,29.00
2017,06,15,13,33,20.90
2017,06,15,13,34,32.20
2017,06,15,13,35,41.80
2017,06,15,13,36,35.40
2017,06,15,13,37,25.70
2017,06,15,13,38,25.70
2017,06,15,13,39,30.60
2017,06,15,13,40,22.50
2017,06,15,13,41,27.40
2017,06,15,13,42,17.70
2017,06,15,13,43,27.40
2017,06,15,13,44,24.20
2017,06,15,13,45,25.70
2017,06,15,13,46,37.00
2017,06,15,13,47,33.80
2017,06,15,13,48,22.50
2017,06,15,13,49,20.90
2017,06,15,13,50,17.70
2017,06,15,13,51,37.00
2017,06,15,13,52,33.80
2017,06,15,13,53,19.30
2017,06,15,13,54,29.00
2017,06,15,13,55,41.80
2017,06,15,13,56,35.40
2017,06,15,13,57,35.40
2017,06,15,13,58,27.40
2017,06,15,13,59,22.50
2017,06,15,14,00,29.00
2017,06,15,14,01,17.70
2017,06,15,14,02,29.00
2017,06,15,14,03,29.00
2017,06,15,14,04,22.50
2017,06,15,14,05,25.70
2017,06,15,14,06,22.50
2017,06,15,14,07,19.30
2017,06,15,14,08,29.00
2017,06,15,14,09,24.20
2017,06,15,14,10,29.00
2017,06,15,14,11,33.80
2017,06,15,14,12,29.00
2017,06,15,14,13,24.20
2017,06,15,14,14,24.20
2017,06,15,14,15,37.00
2017,06,15,14,16,38.60
2017,06,15,14,17,29.00
2017,06,15,14,18,29.00
2017,06,15,14,19,20.90
2017,06,15,14,20,37.00
2017,06,15,14,21,40.20
2017,06,15,14,22,25.70
2017,06,15,14,23,30.60
2017,06,15,14,24,29.00
2017,06,15,14,25,27.40
2017,06,15,14,26,27.40
2017,06,15,14,27,24.20
2017,06,15,14,28,30.60
2017,06,15,14,29,29.00
2017,06,15,14,30,27.40
2017,06,15,14,31,40.20
2017,06,15,14,32,19.30
2017,06,15,14,33,27.40
2017,06,15,14,34,19.30
2017,06,15,14,35,41.80
2017,06,15,14,36,25.70
2017,06,15,14,37,22.50
2017,06,15,14,38,16.10
2017,06,15,14,39,17.70
2017,06,15,14,40,27.40
2017,06,15,14,41,24.20
2017,06,15,14,42,16.10
2017,06,15,14,43,25.70
2017,06,15,14,44,25.70
2017,06,15,14,45,11.30
2017,06,15,14,46,16.10
2017,06,15,14,47,17.70
2017,06,15,14,48,29.00
2017,06,15,14,49,20.90
2017,06,15,14,50,40.20
2017,06,15,14,51,22.50
2017,06,15,14,52,11.30
2017,06,15,14,53,8.10
2017,06,15,14,54,32.20
2017,06,15,14,55,33.80
2017,06,15,14,56,12.90
2017,06,15,14,57,4.80
2017,06,15,14,58,30.60
2017,06,15,14,59,25.70
2017,06,15,15,00,33.80
2017,06,15,15,01,14.50
2017,06,15,15,02,30.60
2017,06,15,15,03,20.90
2017,06,15,15,04,22.50
2017,06,15,15,05,38.60
2017,06,15,15,06,27.40
2017,06,15,15,07,17.70
2017,06,15,15,08,12.90
2017,06,15,15,09,27.40
2017,06,15,15,10,30.60
2017,06,15,15,11,25.70
2017,06,15,15,12,19.30
2017,06,15,15,13,22.50
2017,06,15,15,14,20.90
2017,06,15,15,15,33.80
2017,06,15,15,16,16.10
2017,06,15,15,17,17.70
2017,06,15,15,18,24.20
2017,06,15,15,19,24.20
2017,06,15,15,20,29.00
2017,06,15,15,21,14.50
2017,06,15,15,22,25.70
2017,06,15,15,23,27.40
2017,06,15,15,24,38.60
2017,06,15,15,25,14.50
2017,06,15,15,26,22.50
2017,06,15,15,27,20.90
2017,06,15,15,28,19.30
2017,06,15,15,29,14.50
2017,06,15,15,30,11.30
2017,06,15,15,31,14.50
2017,06,15,15,32,24.20
2017,06,15,15,33,29.00
2017,06,15,15,34,20.90
2017,06,15,15,35,22.50
2017,06,15,15,36,19.30
2017,06,15,15,37,6.40
2017,06,15,15,38,20.90
2017,06,15,15,39,14.50
2017,06,15,15,40,22.50
2017,06,15,15,41,14.50
2017,06,15,15,42,17.70
2017,06,15,15,43,22.50
2017,06,15,15,44,22.50
2017,06,15,15,45,24.20
2017,06,15,15,46,14.50
2017,06,15,15,47,45.10
2017,06,15,15,48,29.00
2017,06,15,15,49,25.70
2017,06,15,15,50,12.90
2017,06,15,15,51,20.90
2017,06,15,15,52,27.40
2017,06,15,15,53,22.50
2017,06,15,15,54,33.80
2017,06,15,15,55,24.20
2017,06,15,15,56,33.80
2017,06,15,15,57,16.10
2017,06,15,15,58,14.50
2017,06,15,15,59,24.20
2017,06,15,16,00,46.70
2017,06,15,16,01,16.10
2017,06,15,16,02,22.50
2017,06,15,16,03,19.30
2017,06,15,16,04,17.70
2017,06,15,16,05,22.50
2017,06,15,16,06,17.70
2017,06,15,16,07,19.30
2017,06,15,16,08,20.90
2017,06,15,16,09,27.40
2017,06,15,16,10,24.20
2017,06,15,16,11,30.60
2017,06,15,16,12,27.40
2017,06,15,16,13,19.30
2017,06,15,16,14,27.40
2017,06,15,16,15,20.90
2017,06,15,16,16,12.90
2017,06,15,16,17,20.90
2017,06,15,16,18,24.20
2017,06,15,16,19,24.20
2017,06,15,16,20,19.30
2017,06,15,16,21,17.70
2017,06,15,16,22,25.70
2017,06,15,16,23,9.60
2017,06,15,16,24,17.70
2017,06,15,16,25,11.30
2017,06,15,16,26,8.10
2017,06,15,16,27,24.20
2017,06,15,16,28,29.00
2017,06,15,16,29,12.90
2017,06,15,16,30,16.10
2017,06,15,16,31,17.70
2017,06,15,16,32,22.50
2017,06,15,16,33,9.60
2017,06,15,16,34,12.90
2017,06,15,16,35,16.10
2017,06,15,16,36,27.40
2017,06,15,16,37,27.40
2017,06,15,16,38,17.70
2017,06,15,16,39,29.00
2017,06,15,16,40,27.40
2017,06,15,16,41,20.90
2017,06,15,16,42,25.70
2017,06,15,16,43,19.30
2017,06,15,16,44,12.90
2017,06,15,16,45,29.00
2017,06,15,16,46,27.40
2017,06,15,16,47,19.30
2017,06,15,16,48,25.70
2017,06,15,16,49,20.90
2017,06,15,16,50,24.20
2017,06,15,16,51,25.70
2017,06,15,16,52,11.30
2017,06,15,16,53,14.50
2017,06,15,16,54,8.10
2017,06,15,16,55,14.50
2017,06,15,16,56,25.70
2017,06,15,16,57,20.90
2017,06,15,16,58,22.50
2017,06,15,16,59,27.40
2017,06,15,17,00,22.50
2017,06,15,17,01,24.20
2017,06,15,17,02,24.20
2017,06,15,17,03,16.10
2017,06,15,17,04,25.70
2017,06,15,17,05,17.70
2017,06,15,17,06,14.50
2017,06,15,17,07,32.20
2017,06,15,17,08,24.20
2017,06,15,17,09,30.60
2017,06,15,17,10,17.70
2017,06,15,17,11,24.20
2017,06,15,17,12,20.90
2017,06,15,17,13,27.40
2017,06,15,17,14,25.70
2017,06,15,17,15,25.70
2017,06,15,17,16,14.50
2017,06,15,17,17,20.90
2017,06,15,17,18,29.00
2017,06,15,17,19,11.30
2017,06,15,17,20,9.60
2017,06,15,17,21,20.90
2017,06,15,17,22,17.70
2017,06,15,17,23,20.90
2017,06,15,17,24,12.90
2017,06,15,17,25,11.30
2017,06,15,17,26,22.50
2017,06,15,17,27,14.50
2017,06,15,17,28,29.00
2017,06,15,17,29,14.50
2017,06,15,17,30,22.50
2017,06,15,17,31,19.30
2017,06,15,17,32,30.60
2017,06,15,17,33,24.20
2017,06,15,17,34,24.20
2017,06,15,17,35,16.10
2017,06,15,17,36,17.70
2017,06,15,17,37,16.10
2017,06,15,17,38,32.20
2017,06,15,17,39,12.90
2017,06,15,17,40,6.40
2017,06,15,17,41,11.30
2017,06,15,17,42,20.90
2017,06,15,17,43,12.90
2017,06,15,17,44,16.10
2017,06,15,17,45,14.50
2017,06,15,17,46,16.10
2017,06,15,17,47,16.10
2017,06,15,17,48,25.70
2017,06,15,17,49,20.90
2017,06,15,17,50,29.00
2017,06,15,17,51,17.70
2017,06,15,17,52,25.70
2017,06,15,17,53,30.60
2017,06,15,17,54,19.30
2017,06,15,17,55,24.20
2017,06,15,17,56,12.90
2017,06,15,17,57,12.90
2017,06,15,17,58,22.50
2017,06,15,17,59,12.90
2017,06,15,18,00,33.80
2017,06,15,18,01,16.10
2017,06,15,18,02,19.30
2017,06,15,18,03,40.20
2017,06,15,18,04,17.70
2017,06,15,18,05,6.40
2017,06,15,18,06,20.90
2017,06,15,18,07,9.60
2017,06,15,18,08,11.30
2017,06,15,18,09,19.30
2017,06,15,18,10,25.70
2017,06,15,18,11,22.50
2017,06,15,18,12,16.10
2017,06,15,18,13,12.90
2017,06,15,18,14,9.60
2017,06,15,18,15,8.10
2017,06,15,18,16,20.90
2017,06,15,18,17,17.70
2017,06,15,18,18,20.90
2017,06,15,18,19,11.30
2017,06,15,18,20,12.90
2017,06,15,18,21,29.00
2017,06,15,18,22,27.40